User: anonymous   Login
Location: Unspecified
(0.0000°N, 0.0000°E)
Time: 02:24:44
(UTC+01:00)
Language:

ASC 2 Rocket - Orbit

View from above orbital plane
View from above orbital plane
View from above satellite
View from above satellite

Ground track
Ground track

The orbit data is extracted from the following two-line orbital elements,

1 21228U 91028B   16036.88560127 +.00000155 +00000-0 +73620-5 0  9992
2 21228 023.9899 180.5966 1143871 047.3331 118.7296 12.53216176135117
Epoch (UTC): 05 February 2016 21:15:15
Eccentricity: 0.1143871
inclination: 23.9899°
perigee height: 555 km
apogee height: 2346 km
right ascension of ascending node: 180.5966°
argument of perigee: 47.3331°
revolutions per day: 12.53216176
mean anomaly at epoch: 118.7296°
orbit number at epoch: 13511

The dashed part of the orbit path shows where the satellite is in the earth's shadow,  

DLR